Back to catalog

SATCOM 3 DEB

AliveHEO
NORAD 38687·DEBRIS·🇺🇸 United States

Launched Dec 7, 1979 from Cape Canaveral Space Force Station

Loading…

Next Passes (next 24 hours)

TLE

FreshSource: Space-Track

Epoch: Sep 13, 2026, 19:29 UTC

1 38687U 79101W   26256.81185813 -.00000080  00000-0  00000-0 0  9995
2 38687   7.5568 175.4468 4752516 289.3233  26.4163  1.80355618124499

Track SATCOM 3 DEB in real time with AllMySat

Download on the App Store